Regional Weather Roundup
Issued by NWS

Home | Current Version | Previous Version | Text Only | Print | Product List | Glossary Off
Versions: 1 2 3 4 5 6 7 8 9 10 11 12 13 14 15 16 17 18 19 20 21 22 23 24 25 26 27

000
ASUS45 KCYS 202310
RWRWY

WYOMING REGIONAL WEATHER ROUNDUP
NATIONAL WEATHER SERVICE CHEYENNE WY
500 PM MDT SUN AUG 20 2017

NOTE:  "FAIR" INDICATES FEW OR NO CLOUDS BELOW 12,000 FEET
WITH NO SIGNIFICANT WEATHER AND/OR OBSTRUCTIONS TO VISIBILITY.

WYZ001-210000-
YELLOWSTONE NATIONAL PARK

CITY           SKY/WX    TMP DP  RH WIND       PRES   REMARKS
LK YELLOWSTONE   N/A     69  24  18 VRB5      30.24S
W YELLOWSTONE  NOT AVBL

$$
WYZ002>013-054>058-071-098>099-210000-
NORTHERN WYOMING

CITY           SKY/WX    TMP DP  RH WIND       PRES   REMARKS
JACKSON        FAIR      78  24  13 W18G30    30.14S
CODY           FAIR      75  44  33 N8        30.04S
GREYBULL       FAIR      87  29  12 NW7       29.92F
WORLAND        FAIR      84  42  22 N7        29.92F
SHERIDAN       FAIR      88  41  19 VRB3      29.94F
BUFFALO        FAIR      84  38  19 N17       30.00R
GILLETTE       FAIR      90  27  10 W12       29.92F
HULETT         FAIR      81  46  30 E12       29.98F
NEWCASTLE      FAIR      82  43  24 SE16G29   30.00S

$$
WYZ014>020-022>026-101>103-210000-
CENTRAL WYOMING

CITY           SKY/WX    TMP DP  RH WIND       PRES   REMARKS
BIG PINEY      FAIR      82  29  14 W20G26    30.17S
PINEDALE       FAIR      79  28  15 NW17G24   30.18S
DUBOIS         FAIR      75  23  14 N23G35    30.15S
LANDER           N/A    N/A N/A N/A MISG      29.99S
RIVERTON       FAIR      86  26  11 NW12      29.99F
CASPER         FAIR      87  25  10 W10       29.99F
DOUGLAS        FAIR      84  49  29 SE17      30.01F

$$
WYZ021-027>030-104>119-210000-
SOUTHERN WYOMING

CITY           SKY/WX    TMP DP  RH WIND       PRES   REMARKS
EVANSTON       FAIR      82  31  15 W18G26    30.19S
KEMMERER         N/A     79  28  15 W23       30.20F
FORT BRIDGER   CLOUDY    80  31  17 N6G16     30.22S
ROCK SPRINGS   LGT RAIN  74  35  24 SW21      30.23R
RAWLINS        PTSUNNY   81  27  14 SW15G22   30.15S
SARATOGA       FAIR      79  36  21 E9        30.17S
LARAMIE        FAIR      77  32  19 SE9       30.21F
CHEYENNE       PTSUNNY   80  44  27 E9        30.14S
TORRINGTON     FAIR      86  50  28 SE18      29.98F
PINE BLUFFS    FAIR      82  50  32 E9        30.08S

$$




USA.gov is the U.S. government's official web portal to all federal, state and local government web resources and services.